"Pseudo-MPEC" for C1AWNZ2

Created 2019 Nov 13 9:07:02 UT using Find_Orb

Click here for an explanation of pseudo-MPECs

 
 Astrometry: 
     C1AWNZ2  C2019 10 27.50030 08 43 17.46 +02 06 43.1    ~ARCb 21.2 GVNEOCPG96
     C1AWNZ2  C2019 10 27.50545 08 43 17.97 +02 06 41.2    ~ARCb 21.1 GVNEOCPG96
     C1AWNZ2  C2019 10 27.51061 08 43 18.48 +02 06 38.7    ~ARCb 20.9 GVNEOCPG96
     C1AWNZ2  C2019 10 27.51576 08 43 19.01 +02 06 36.0    ~ARCb 20.9 GVNEOCPG96
     C1AWNZ2 KC2019 10 29`TgqAvG*ybH\[Qtjx/62U(Yhd]egw?Tn:*py]r;]twl(l6!LlV.LJ04
     C1AWNZ2 KC2019 10 29yLcd9a]G/QQ%PAstrometry4Qkq%CiKK[a,7gxredacted;Gv$FHJ04
     C1AWNZ2 KC2019 10 29hd)!clSoL]]W)U7LxbQ4$7KE6LAnMD67:sm#frl]VIfe`l=#xQ'5J04
     C1AWNZ2  C2019 10 30.43453 08 48 09.56 +01 46 20.5    ~AUAq 20.9 GVNEOCPI52
     C1AWNZ2  C2019 10 30.43813 08 48 09.99 +01 46 19.8    ~AUAq 20.8 GVNEOCPI52
     C1AWNZ2  C2019 10 31.45071 08 49 48.88 +01 39 23.1    ~AVBM 21.2 GVNEOCPI52
     C1AWNZ2  C2019 10 31.45464 08 49 49.26 +01 39 22.1    ~AVBM 21.6 GVNEOCPI52
     C1AWNZ2  C2019 10 31.45630 08 49 49.46 +01 39 19.7    ~AVBM 20.1 GVNEOCPI52
     C1AWNZ2  C2019 10 31.45847 08 49 49.58 +01 39 19.3    ~AVBM 20.8 GVNEOCPI52
     C1AWNZ2  C2019 11 01.48846 08 51 29.16 +01 32 19.2    ~B1CM 20.9 GVNEOCPI52
     C1AWNZ2  C2019 11 01.49425 08 51 29.67 +01 32 16.5    ~B1CM 21.4 GVNEOCPI52
     C1AWNZ2  C2019 11 01.49827 08 51 30.03 +01 32 15.5    ~B1CM 21.1 GVNEOCPI52
     C1AWNZ2  C2019 11 03.48760 08 54 39.50 +01 18 53.2    ~B3C7 20.9 GVNEOCPI52
     C1AWNZ2  C2019 11 03.49011 08 54 39.77 +01 18 51.9    ~B3C7 21.1 GVNEOCPI52
     C1AWNZ2  C2019 11 03.49261 08 54 39.97 +01 18 51.4    ~B3C7 20.9 GVNEOCPI52
     C1AWNZ2  C2019 11 05V%)HtVFdG`^n=Jnjp,?reZ?(]q4,jDfMF:]F$_`bS$fn\.nVZ36SF52
     C1AWNZ2  C2019 11 05oMJ)E1NCwUDk9joRQ2_/Ra#iIKE*^5]S.7ase^p@(;3M0eXvKgOfF52
     C1AWNZ2  C2019 11 05Dr6oq@-,W:H?Qc8p!b7^#$1hjCdoclick0m[.?hereqW6kdBI$DhF52
     C1AWNZ2  C2019 11 050a'=Cq!Gv2i@for/-5?!J'@v^1gSjZR3jmnK0explanation7v18F52

Station data:
(F52) Pan-STARRS 2, Haleakala  (N20.707384 W156.255910)  US/Hawaii. 1.8-m
   Ritchey-Chrétien + CCD.
(G96) Mt. Lemmon Survey  (N32.442754 W110.788720)  US/Arizona.  Observers T.
   A. Pruyne, B. M. Africano, E. J. Christensen, G. A. Farneth, D. C. Fuls,
   A. R. Gibbs, A. D. Grauer, H. Gröller, J. A. Johnson, R. A. Kowalski, S.
   M. Larson, G. J. Leonard, D. Rankin, R. L. Seaman, F. C. Shelly. 1.5-m
   reflector + 10K CCD.
(I52) Steward Observatory, Mt. Lemmon Station  (N32.442547 W110.788920)
   US/Arizona.  Observers T. A. Pruyne, B. M. Africano, E. J. Christensen, G.
   A. Farneth, D. C. Fuls, A. R. Gibbs, A. D. Grauer, H. Gröller, J. A.
   Johnson, R. A. Kowalski, S. M. Larson, G. J. Leonard, D. Rankin, R. L.
   Seaman, F. C. Shelly. 1.0-m reflector + CCD.
(J04) ESA Optical Ground Station, Tenerife  (N28.300924 W16.511830)  Canary
   Islands (Spain).  Observer D. Abreu. Measurers M. Micheli, D. Koschny, E.
   Schwab, M. Busch, A. Knöfel. 1.0-m f/4.4 reflector + CCD.

Orbital elements:  C1AWNZ2
   Perihelion 2019 Oct 10.132561 +/- 2.74 TT =  3:10:53 (JD 2458766.632561)
Epoch 2019 Nov  5.0 TT = JDT 2458792.5   Ju: 0.8571           AutoNEOCP
M   3.61619118 +/- 2.6              (J2000 ecliptic)
n   0.13979703 +/- 0.107            Peri.  297.41760 +/- 0.7
a   3.67680629 +/- 1.8              Node   155.84278 +/- 3.6
e   0.4608038 +/- 0.255             Incl.   17.92249 +/- 0.21
P   7.05                   H 17.2   G  0.15   U 11.2  
q 1.98251963 +/- 0.107    Q 5.37109294 +/- 5.93
From 23 observations 2019 Oct. 27-Nov. 5; mean residual 0".38
Residuals in arcseconds: 
191027 G96  .01+  .03+    191030 I52  .51+  .29+    191103 I52  .15-  .14+    
191027 G96  .01-  .29+    191031 I52  .42+  .10+    191103 I52  .41+  .16-    
191027 G96  .05-  .04-    191031 I52  .46+  .71+    191103 I52  .07-  .34+    
191027 G96  .22+  .58-    191031 I52  1.1+  1.0-    191105 F52  .01+  .09-    
191029 J04  .09-  .30+    191031 I52  .25-  .52-    191105 F52  .18+  .01+    
191029 J04  .06-  .17+    191101 I52  .15+  .11-    191105 F52  .08+  .15+    
191029 J04  .25-  .36+    191101 I52  .43-  .46-    191105 F52  .04+  .15-    
191030 I52  .70-  .49-    191101 I52  .73-  .17+    

Ephemerides (geocentric):
Date (UTC) HH   RA              Dec         delta   r     elong  mag " sig PA
---- -- -- --  -------------   -----------  ------ ------ -----  --- ---- ---
2019 11 13 09  09 09 20.422   +00 16 38.97  1.7292 2.0027  90.7 21.1 18.6 105
2019 11 13 10  09 09 23.911   +00 16 24.30  1.7288 2.0027  90.7 21.1 18.7 105
2019 11 13 11  09 09 27.398   +00 16 09.64  1.7285 2.0028  90.7 21.1 18.8 105
2019 11 13 12  09 09 30.882   +00 15 54.99  1.7281 2.0028  90.8 21.1 18.9 105
2019 11 13 13  09 09 34.365   +00 15 40.34  1.7277 2.0029  90.8 21.1 19.0 105
2019 11 13 14  09 09 37.846   +00 15 25.71  1.7274 2.0029  90.8 21.1 19.1 105
2019 11 13 15  09 09 41.324   +00 15 11.09  1.7270 2.0030  90.8 21.1 19.2 105
2019 11 13 16  09 09 44.801   +00 14 56.48  1.7266 2.0030  90.9 21.1 19.3 105
2019 11 13 17  09 09 48.276   +00 14 41.88  1.7262 2.0031  90.9 21.1 19.3 105
2019 11 13 18  09 09 51.749   +00 14 27.30  1.7259 2.0031  90.9 21.1 19.4 105
2019 11 13 19  09 09 55.220   +00 14 12.72  1.7255 2.0032  90.9 21.1 19.5 105
2019 11 13 20  09 09 58.688   +00 13 58.15  1.7251 2.0032  91.0 21.1 19.6 105
2019 11 13 21  09 10 02.155   +00 13 43.59  1.7247 2.0033  91.0 21.1 19.7 105
2019 11 13 22  09 10 05.620   +00 13 29.04  1.7244 2.0033  91.0 21.1 19.8 105
2019 11 13 23  09 10 09.083   +00 13 14.51  1.7240 2.0034  91.0 21.1 19.9 105
2019 11 14 00  09 10 12.544   +00 12 59.98  1.7236 2.0034  91.1 21.1 20.0 105
2019 11 14 01  09 10 16.003   +00 12 45.47  1.7233 2.0035  91.1 21.1 20.1 105
2019 11 14 02  09 10 19.460   +00 12 30.96  1.7229 2.0035  91.1 21.1 20.2 105
2019 11 14 03  09 10 22.915   +00 12 16.47  1.7225 2.0036  91.1 21.1 20.3 105
2019 11 14 04  09 10 26.368   +00 12 01.99  1.7221 2.0036  91.2 21.1 20.3 105
2019 11 14 05  09 10 29.819   +00 11 47.52  1.7218 2.0037  91.2 21.1 20.4 105
2019 11 14 06  09 10 33.268   +00 11 33.05  1.7214 2.0037  91.2 21.1 20.5 105
2019 11 14 07  09 10 36.715   +00 11 18.60  1.7210 2.0038  91.2 21.1 20.6 104
2019 11 14 08  09 10 40.160   +00 11 04.16  1.7206 2.0038  91.3 21.1 20.7 104
2019 11 14 09  09 10 43.603   +00 10 49.73  1.7203 2.0039  91.3 21.1 20.8 104
2019 11 14 10  09 10 47.044   +00 10 35.32  1.7199 2.0039  91.3 21.1 20.9 104
2019 11 14 11  09 10 50.483   +00 10 20.91  1.7195 2.0040  91.4 21.1 21.0 104
2019 11 14 12  09 10 53.919   +00 10 06.51  1.7192 2.0040  91.4 21.1 21.1 104
2019 11 14 13  09 10 57.354   +00 09 52.13  1.7188 2.0041  91.4 21.1 21.2 104
2019 11 14 14  09 11 00.787   +00 09 37.75  1.7184 2.0041  91.4 21.1 21.3 104
2019 11 14 15  09 11 04.218   +00 09 23.39  1.7180 2.0042  91.5 21.1 21.4 104
2019 11 14 16  09 11 07.647   +00 09 09.03  1.7177 2.0042  91.5 21.1 21.4 104
2019 11 14 17  09 11 11.074   +00 08 54.69  1.7173 2.0043  91.5 21.1 21.5 104
2019 11 14 18  09 11 14.499   +00 08 40.36  1.7169 2.0043  91.5 21.1 21.6 104
2019 11 14 19  09 11 17.922   +00 08 26.04  1.7165 2.0044  91.6 21.1 21.7 104
2019 11 14 20  09 11 21.343   +00 08 11.73  1.7162 2.0044  91.6 21.1 21.8 104
2019 11 14 21  09 11 24.762   +00 07 57.43  1.7158 2.0045  91.6 21.1 21.9 104
2019 11 14 22  09 11 28.179   +00 07 43.15  1.7154 2.0045  91.6 21.1 22.0 104
2019 11 14 23  09 11 31.594   +00 07 28.87  1.7151 2.0046  91.7 21.1 22.1 104
2019 11 15 00  09 11 35.007   +00 07 14.60  1.7147 2.0046  91.7 21.1 22.2 104
2019 11 15 01  09 11 38.418   +00 07 00.35  1.7143 2.0047  91.7 21.1 22.3 104
2019 11 15 02  09 11 41.827   +00 06 46.11  1.7139 2.0047  91.7 21.1 22.4 104
2019 11 15 03  09 11 45.233   +00 06 31.87  1.7136 2.0048  91.8 21.1 22.5 104
2019 11 15 04  09 11 48.638   +00 06 17.65  1.7132 2.0048  91.8 21.1 22.6 104
2019 11 15 05  09 11 52.041   +00 06 03.44  1.7128 2.0049  91.8 21.1 22.7 104
2019 11 15 06  09 11 55.442   +00 05 49.25  1.7125 2.0049  91.8 21.1 22.7 104
2019 11 15 07  09 11 58.841   +00 05 35.06  1.7121 2.0050  91.9 21.1 22.8 104
2019 11 15 08  09 12 02.237   +00 05 20.88  1.7117 2.0050  91.9 21.1 22.9 104